EST,Max TemperatureF,Mean TemperatureF,Min TemperatureF,Max Dew PointF,MeanDew PointF,Min DewpointF,Max Humidity, Mean Humidity, Min Humidity, Max Sea Level PressureIn, Mean Sea Level PressureIn, Min Sea Level PressureIn, Max VisibilityMiles, Mean VisibilityMiles, Min VisibilityMiles, Max Wind SpeedMPH, Mean Wind SpeedMPH, Max Gust SpeedMPH,PrecipitationIn, CloudCover, Events, WindDirDegrees
2014-1-1,41,32,22,28,23,18,88,72,55,30.31,30.20,30.06,10,9,6,10,6,13,0.00,7,,134
2014-1-2,29,19,8,25,16,1,92,83,73,30.30,29.99,29.87,10,2,0,30,14,38,0.26,8,Fog-Snow,13
2014-1-3,14,5,-5,5,-2,-8,79,64,48,30.54,30.43,30.28,10,10,10,16,7,21,0.00,1,,230
2014-1-4,36,24,11,22,13,4,73,59,44,30.26,30.13,30.07,10,10,10,26,13,36,0.00,4,,190
2014-1-5,37,30,23,36,31,19,100,81,61,30.07,29.75,29.48,10,3,0,26,9,38,0.93,8,Fog-Rain-Snow,110
2014-1-6,23,7,-10,19,-9,-19,88,74,59,30.39,30.14,29.67,10,5,1,32,23,41,0.01,7,Snow,269
2014-1-7,12,2,-9,2,-9,-17,72,64,55,30.50,30.43,30.30,10,10,10,25,16,32,0.00,4,,230
2014-1-8,26,18,10,19,10,2,88,75,61,30.51,30.44,30.41,10,10,7,14,7,17,0.00,7,,205
2014-1-9,34,26,18,31,22,15,100,85,69,30.55,30.44,30.30,10,5,0,14,7,17,0.15,7,Fog-Snow,120
2014-1-10,50,42,33,47,37,31,100,95,89,30.28,30.08,29.74,10,2,0,16,9,22,0.02,8,Fog-Rain,157
2014-1-11,51,43,35,49,41,30,93,86,79,29.79,29.59,29.47,10,8,0,32,18,40,0.37,8,Rain,226
2014-1-12,44,38,32,32,29,27,85,72,58,30.07,29.95,29.79,10,10,7,26,13,33,0.00,6,,224
2014-1-13,51,47,42,45,38,29,93,75,56,29.87,29.75,29.69,10,9,5,26,15,35,0.05,7,Rain,210
2014-1-14,46,37,27,37,29,20,92,67,41,29.91,29.82,29.75,10,8,5,25,11,35,T,6,Rain,250
2014-1-15,31,24,17,19,16,13,84,71,58,30.11,30.04,29.92,10,8,2,30,12,35,T,7,Snow,268
2014-1-16,31,24,17,25,20,12,92,80,68,30.05,29.84,29.72,10,6,0,24,13,31,0.07,7,Snow,193
2014-1-17,32,19,6,30,18,-2,92,77,61,30.08,29.86,29.75,10,5,0,23,12,29,0.20,8,Fog-Snow,242
2014-1-18,24,17,9,21,13,4,96,81,66,30.06,29.94,29.77,10,6,0,17,10,22,0.30,7,Fog-Snow,180
2014-1-19,33,27,21,23,20,16,84,73,61,29.96,29.83,29.72,10,9,4,30,16,38,T,6,Snow,240
2014-1-20,36,34,31,29,26,23,85,72,59,29.94,29.83,29.67,10,10,9,22,9,29,0.00,7,,256
2014-1-21,31,16,0,27,8,-9,88,74,60,30.23,30.02,29.81,10,5,0,31,15,39,0.06,6,Snow,4
2014-1-22,14,4,-6,10,-1,-12,84,68,52,30.22,30.11,29.98,10,8,2,23,9,30,0.01,6,Snow,223
2014-1-23,14,6,-3,4,-5,-9,80,70,60,30.63,30.41,30.02,10,10,7,23,14,29,T,3,,269
2014-1-24,21,9,-4,10,-3,-8,87,68,49,30.62,30.33,29.83,10,9,3,35,17,44,T,5,Snow,213
2014-1-25,31,20,9,25,15,-1,88,74,59,29.91,29.60,29.45,10,4,0,35,20,44,0.08,7,Snow,259
2014-1-26,41,23,4,28,12,-3,84,68,52,29.92,29.69,29.55,10,7,0,26,13,33,0.11,7,Fog-Snow,191
2014-1-27,42,17,-8,30,0,-15,76,62,47,30.47,30.09,29.59,10,9,1,41,18,51,T,4,Snow,285
2014-1-28,5,-4,-13,-9,-13,-17,79,65,51,30.52,30.45,30.37,10,10,10,9,6,13,0.00,2,,237
2014-1-29,20,8,-5,4,-3,-10,69,57,45,30.36,30.34,30.29,10,10,10,23,12,28,0.00,0,,219
2014-1-30,32,22,11,10,4,0,61,48,35,30.28,30.12,29.92,10,10,10,25,14,31,0.00,5,,188
2014-1-31,33,32,30,28,23,11,92,66,39,30.16,30.11,30.00,10,6,1,16,7,20,0.05,8,Snow,217